Regional Weather Roundup
Issued by NWS

Home | Current Version | Previous Version | Text Only | Print | Product List | Glossary On
Versions: 1 2 3 4 5 6 7 8 9 10 11 12 13 14 15 16 17 18 19 20 21 22 23 24 25 26 27
000
ASUS45 KREV 010110
RWRNV
NEVADA REGIONAL WEATHER ROUNDUP
NATIONAL WEATHER SERVICE RENO NV
600 PM PDT SAT APR 30 2016

NOTE: "FAIR" INDICATES FEW OR NO CLOUDS BELOW 12,000 FEET WITH NO
SIGNIFICANT WEATHER AND/OR OBSTRUCTIONS TO VISIBILITY.

NVZ001-003-004-010200-
WESTERN NEVADA

CITY           SKY/WX    TMP DP  RH WIND       PRES   REMARKS
RENO           PTSUNNY   58  30  34 N12       30.03S
CARSON CITY    CLOUDY    55  32  41 NE9       30.04S
MINDEN         CLOUDY    54  36  50 SW5       30.04S
SLIDE MTN        N/A     30  30 100 SE10        N/A
PYRAMID LAKE     N/A     61 N/A N/A NW5         N/A
FALLON         PTSUNNY   62  29  28 NE14      29.99F
LOVELOCK       SUNNY     63  26  24 NE21G29   30.01S
HAWTHORNE      CLOUDY    57  32  38 NW13G21   30.00F
$$

NVZ002-CAZ072-073-010200-
NORTHERN AND CENTRAL SIERRA

CITY           SKY/WX    TMP DP  RH WIND       PRES   REMARKS
S. LAKE TAHOE  CLOUDY    47  31  53 NE9G18    30.05R
TRUCKEE        PTSUNNY   50  30  46 NE13G21   30.06R
SQUAW VLY 8000   N/A     37  28  70 NE14        N/A
SUSANVILLE     PTSUNNY   63  30  29 NE16      30.03F
BLUE CANYON    SUNNY     54  28  36 NE13G21   30.00S
MAMMOTH LAKES  CLOUDY    47  27  45 N10       30.04S
BRIDGEPORT     CLOUDY    44  27  51 NE12G18   30.04R
$$

NVZ030-031-036-010200-
NORTHERN NEVADA

CITY           SKY/WX    TMP DP  RH WIND       PRES   REMARKS
ELKO           MOSUNNY   57  32  38 N15G24    30.00R
WINNEMUCCA     MOSUNNY   59  30  33 N13G23    30.02F
WENDOVER       MOSUNNY   55  36  47 N17       29.99S
$$

NVZ035-037-010200-
CENTRAL NEVADA

CITY           SKY/WX    TMP DP  RH WIND       PRES   REMARKS
ELY            PTSUNNY   45  36  70 N21       29.96R
EUREKA           N/A     50  33  52 N16G26    29.99R
$$

NVZ013-014-010200-
SOUTH CENTRAL NEVADA

CITY           SKY/WX    TMP DP  RH WIND       PRES   REMARKS
TONOPAH        PTSUNNY   59  25  27 NE26G32   29.92R
$$

NVZ017-020-022-010200-
SOUTHERN NEVADA

CITY           SKY/WX    TMP DP  RH WIND       PRES   REMARKS
LAS VEGAS      CLOUDY    57  51  80 S5        29.76F
N. LAS VEGAS   CLOUDY    56  50  80 S6        29.79R
NELLIS AFB     CLOUDY    59  52  76 NW1       29.78S
HENDERSON      LGT RAIN  54  51  90 S6        29.82S
MERCURY        LGT RAIN  59  44  57 SE5       29.79S
$$




USA.gov is the U.S. government's official web portal to all federal, state and local government web resources and services.